Terug naar catalogus

STARLINK-4105

ActiefCommunicatieVLEO
NORAD 53168·PAYLOAD·🇺🇸 United States

Gelanceerd Jul 17, 2022 vanaf Cape Canaveral Space Force Station

Loading…

Volgende Passages (komende 24 uur)

TLE

VersSource: CelesTrak SupGP

Epoch: Sep 15, 2026, 02:22 UTC

1 53168C 22083AN  26258.09909722 -.00014114  00000+0 -42841-3 0  2581
2 53168  53.1606  28.8611 0001128  89.9912 139.2636 15.33545636    14

Volg STARLINK-4105 in realtime met AllMySat

Download on the App Store